Regional Weather Roundup
Issued by NWS Midland/Odessa, TX

Skip options and go directly to product.
Home | Oldest Version | Previous Version | Current Version | All | Text Only | Save Text | Print | Product List | Glossary On

Skip product version selection by date and time.   
391
ASUS44 KMAF 300410
RWRMAF
MIDLAND AREA WEATHER ROUNDUP
NATIONAL WEATHER SERVICE MIDLAND TX
1100 PM CDT SAT APR 29 2017

...IN SOUTHWEST TEXAS AND SOUTHEAST NEW MEXICO...

CITY           SKY/WX    TMP DP  RH WIND       PRES   REMARKS
ALPINE         CLOUDY    43  35  72 N18       30.12R WCI  35
ANDREWS        FAIR      39  33  77 N17G28    30.02R WCI  30
ARTESIA        CLEAR     37  36  93 N9        30.10R WCI  31
BIG SPRING     CLOUDY    44  36  73 NW18G24   30.02R WCI  36
CARLSBAD       CLEAR     40  36  86 N14       30.08R WCI  32
DRYDEN           N/A     57  38  48 NW25G35   29.93R
FORT STOCKTON  CLOUDY    47  35  63 NW17      30.05R
GUAD PASS      CLEAR     36  32  85 E22       30.03R WCI  25
HOBBS          CLEAR     37  32  81 NW16G22   30.04S WCI  28
MARFA          CLEAR     42  34  73 NE15      30.05R WCI  34
MIDLAND AIRPK  CLOUDY    45  35  69 NW16      30.01R WCI  37
MIDLAND INTL   PTCLDY    45  35  68 N21G29    30.00R WCI  37
ODESSA         CLEAR     44  34  67 N14       30.01R WCI  37
PECOS          CLEAR     45  35  66 NW13G21   30.07R WCI  39
PRESIDIO       MOCLDY    59  32  35 N8        30.00R
SEMINOLE       CLEAR     38  32  79 N18G30    30.04R WCI  29
SNYDER         CLOUDY   N/A N/A N/A W17G23    29.94R
WINK           CLEAR     43  35  73 N18G25    30.03R WCI  35
$$
...OTHER STATIONS IN TEXAS...

CITY           SKY/WX    TMP DP  RH WIND       PRES   REMARKS
ABILENE        LGT RAIN  49  46  90 NW13      29.84S
AMARILLO       LGT SNOW  32  32 100 NW21G30   29.92S VSB 1   WCI  20
AUSTIN         CLOUDY    68  46  45 NW16G29   29.81R
BROWNSVILLE    CLOUDY    80  75  84 S17G25    29.56R
CORPUS CHRISTI CLOUDY    79  75  87 S16       29.63R
DALLAS FTW     CLOUDY    58  48  69 NW20      29.77R
DEL RIO        CLOUDY    66  35  31 NW13G24   29.85S
EL PASO        PTCLDY    50  31  48 N14       30.03R
HOUSTON INT    LGT RAIN  78  75  90 S8        29.72R
LUBBOCK        CLOUDY    38  34  85 NW24G31   29.96R WCI  27
SAN ANGELO     CLOUDY    58  39  49 W21G31    29.92R
SAN ANTONIO    CLOUDY    68  41  37 NW17G32   29.81R
WACO           CLOUDY    60  47  61 NW16G25   29.82R
WICHITA FALLS  NOT AVBL
$$
...OTHER LOCATIONS IN NEW MEXICO...

CITY           SKY/WX    TMP DP  RH WIND       PRES   REMARKS
ALAMOGORDO     CLEAR     45  34  65 NW7       30.05R
ALBUQUERQUE    CLOUDY    38  35  89 SE6       30.08R WCI  33
CANNON AFB     MOCLDY    33  33 100 N22G31    30.00R WCI  21
CLOVIS         CLOUDY    34  27  75 N28       29.99R WCI  20
HOLLOMAN AFB   PTCLDY    43  37  79 W7        30.08R WCI  39
ROSWELL        PTCLDY    40  31  70 N12         N/A  WCI  33
RUIDOSO        LGT RAIN  28  27  93 CALM      30.09R
SANTA FE       CLOUDY    31  30  96 N14       30.04R WCI  21
TRUTH OR CONSE CLEAR     44  30  57 NW9       30.05R WCI  39
TUCUMCARI      LGT SNOW  34  32  92 N22       30.03S FOG     WCI  22
$$

  • National Weather Service
  • Southern Region Headquarters
  • 819 Taylor Street, Room 10A06
  • Fort Worth, TX 76102
  • Page Author: NWS Fort Worth
  • Web Master: SR-SRH.Webmaster@noaa.gov
  •  
  • Page last modified: 30-Sep-2016 6:36 PM UTC
USA.gov is the U.S. government's official web portal to all federal, state and local government web resources and services.